Location: Bothwell
(42.3833°S, 147.0000°E)
Time: 22:24:51
(UTC+11:00)

RS-44 - Pass Details

Date: 03 October 2022
Orbit: 1175 x 1510 km, 82.5° (Epoch: 29 November)

Event Time Altitude Azimuth Distance (km) Brightness Sun altitude
Exits shadow 01:01:22 29° 246° (WSW) 2,478 ? -43.9°
Drops below altitude 10° 01:08:52 10° 189° (S) 3,701 ? -43.9°
Sets 01:12:24 0° 177° (S) 4,682 ? -43.8°
